Weather History for Kenansville, NC

Change the Weather History Date:

Saturday, March 17, 2012

  Actual Average (KGSB) Record (KGSB)
Temperature  
Mean Temperature 66 °F -  
Max Temperature 78 °F 62 °F 80 °F (1999)
Min Temperature 53 °F 42 °F 30 °F (1997)
Growing Degree Days 16 (Base 50)    
Moisture  
Dew Point 58 °F    
Average Humidity 75    
Maximum Humidity 100    
Minimum Humidity 44    
Precipitation  
Precipitation 0.02 in - - ()
Sea Level Pressure  
Sea Level Pressure 30.20 in    
Wind  
Wind Speed 2 mph (North)    
Max Wind Speed 7 mph    
Max Gust Speed -    
Visibility 9 miles    
Events Rain    
Averages and records for this station are not official NWS values.
T = Trace of Precipitation, MM = Missing Value Source: NWS Daily Summary

Daily Weather History Graph

Daily Weather History Graph

Search for Another Location

Airport:

Trip Planner

Search our weather history database for the weather conditions in past years. The results will help you decide how hot, cold, wet, or windy it might be!

Date:

Astronomy

Mar. 17, 2012 Rise Set
Actual Time 7:19 AM EDT 7:21 PM EDT
Civil Twilight 6:53 AM EDT 7:46 PM EDT
Nautical Twilight 6:24 AM EDT 8:16 PM EDT
Astronomical Twilight 5:54 AM EDT 8:46 PM EDT
Moon 4:09 AM EDT (3/17) 2:53 PM EDT (3/17)
Length of Visible Light 12h 52m
Length of Day
12h 02m
Waning Crescent, 23% of the Moon is Illuminated
Mar 17
Waning Crescent
Mar 22
New
Mar 30
First Quarter
Apr 6
Full
Apr 13
Last Quarter

Hourly Weather History & Observations

Time (EDT) Temp. Dew Point Humidity Pressure Visibility Wind Dir Wind Speed Gust Speed Precip Events Conditions
12:15 AM 62.6 °F 59.0 °F 88% 30.18 in 10.0 mi Calm Calm - N/A   Mostly Cloudy
12:35 AM 64.4 °F 59.0 °F 83% 30.18 in 10.0 mi Calm Calm - N/A   Overcast
12:55 AM 62.6 °F 59.0 °F 88% 30.20 in 10.0 mi West 6.9 mph - N/A   Mostly Cloudy
1:15 AM 62.6 °F 57.2 °F 82% 30.22 in 10.0 mi NW 6.9 mph - N/A   Scattered Clouds
1:35 AM 62.6 °F 57.2 °F 82% 30.22 in 10.0 mi Calm Calm - N/A   Mostly Cloudy
1:55 AM 62.6 °F 57.2 °F 82% 30.20 in 10.0 mi Calm Calm - N/A   Mostly Cloudy
2:15 AM 60.8 °F 57.2 °F 88% 30.19 in 10.0 mi East 3.5 mph - N/A   Scattered Clouds
2:35 AM 60.8 °F 59.0 °F 94% 30.18 in 10.0 mi SE 3.5 mph - N/A Rain Light Rain
2:55 AM 60.8 °F 59.0 °F 94% 30.19 in 5.0 mi SW 3.5 mph - 0.01 in Rain Rain
3:35 AM 60.8 °F 59.0 °F 94% 30.17 in 7.0 mi Calm Calm - N/A   Scattered Clouds
3:55 AM 59.0 °F 59.0 °F 100% 30.16 in 7.0 mi Calm Calm - 0.01 in   Clear
4:15 AM 59.0 °F 59.0 °F 100% 30.16 in 5.0 mi Calm Calm - N/A   Clear
4:35 AM 59.0 °F 57.2 °F 94% 30.16 in 7.0 mi Calm Calm - N/A   Clear
4:55 AM 59.0 °F 57.2 °F 94% 30.16 in 7.0 mi Calm Calm - N/A   Clear
5:15 AM 57.2 °F 55.4 °F 94% 30.16 in 3.0 mi Calm Calm - N/A   Clear
5:35 AM 55.4 °F 55.4 °F 100% 30.16 in 3.0 mi Calm Calm - N/A   Clear
5:55 AM 55.4 °F 53.6 °F 94% 30.17 in 5.0 mi Calm Calm - N/A   Clear
6:35 AM 55.4 °F 55.4 °F 100% 30.19 in 5.0 mi Calm Calm - N/A   Clear
6:55 AM 53.6 °F 53.6 °F 100% 30.19 in 2.5 mi Calm Calm - N/A   Clear
7:15 AM 55.4 °F 53.6 °F 94% 30.19 in 5.0 mi Calm Calm - N/A   Clear
7:35 AM 55.4 °F 53.6 °F 94% 30.20 in 1.8 mi Calm Calm - N/A   Mist
7:55 AM 55.4 °F 55.4 °F 100% 30.21 in 4.0 mi Calm Calm - N/A   Scattered Clouds
8:15 AM 59.0 °F 57.2 °F 94% 30.22 in 5.0 mi Calm Calm - N/A   Scattered Clouds
8:35 AM 59.0 °F 59.0 °F 100% 30.23 in 10.0 mi Calm Calm - N/A   Clear
8:55 AM 60.8 °F 59.0 °F 94% 30.24 in 10.0 mi Calm Calm - N/A   Clear
9:15 AM 62.6 °F 59.0 °F 88% 30.24 in 10.0 mi Calm Calm - N/A   Clear
9:55 AM 64.4 °F 59.0 °F 83% 30.25 in 10.0 mi WSW 3.5 mph - N/A   Clear
10:15 AM 68.0 °F 60.8 °F 78% 30.25 in 10.0 mi SW 3.5 mph - N/A   Clear
10:35 AM 68.0 °F 60.8 °F 78% 30.25 in 10.0 mi NW 3.5 mph - N/A   Clear
10:55 AM 69.8 °F 60.8 °F 73% 30.25 in 10.0 mi Calm Calm - N/A   Clear
11:15 AM 69.8 °F 60.8 °F 73% 30.25 in 10.0 mi Calm Calm - N/A   Clear
11:35 AM 69.8 °F 59.0 °F 68% 30.25 in 10.0 mi NNW 5.8 mph - N/A   Clear
11:55 AM 71.6 °F 59.0 °F 64% 30.24 in 10.0 mi NNW 5.8 mph - N/A   Clear
12:15 PM 71.6 °F 59.0 °F 64% 30.24 in 10.0 mi NNE 3.5 mph - N/A   Clear
12:35 PM 73.4 °F 60.8 °F 65% 30.24 in 10.0 mi NNE 5.8 mph - N/A   Clear
12:55 PM 73.4 °F 60.8 °F 65% 30.23 in 10.0 mi Calm Calm - N/A   Unknown
1:15 PM 75.2 °F 60.8 °F 61% 30.23 in 10.0 mi NE 5.8 mph - N/A   Clear
1:35 PM 75.2 °F 59.0 °F 57% 30.22 in 10.0 mi North 5.8 mph - N/A   Scattered Clouds
1:55 PM 77.0 °F 59.0 °F 54% 30.21 in 10.0 mi North 6.9 mph - N/A   Scattered Clouds
2:15 PM 77.0 °F 59.0 °F 54% 30.20 in 10.0 mi WNW 3.5 mph - N/A   Scattered Clouds
2:35 PM 77.0 °F 59.0 °F 54% 30.19 in 10.0 mi NW 3.5 mph - N/A   Scattered Clouds
2:55 PM 78.8 °F 57.2 °F 47% 30.18 in 10.0 mi NE 3.5 mph - N/A   Scattered Clouds
3:15 PM 78.8 °F 57.2 °F 47% 30.18 in 10.0 mi North 6.9 mph - N/A   Scattered Clouds
3:35 PM 77.0 °F 57.2 °F 50% 30.18 in 10.0 mi North 6.9 mph - N/A   Scattered Clouds
3:55 PM 77.0 °F 57.2 °F 50% 30.18 in 10.0 mi North 4.6 mph - N/A   Mostly Cloudy
4:15 PM 77.0 °F 57.2 °F 50% 30.18 in 10.0 mi Calm Calm - N/A   Scattered Clouds
4:35 PM 78.8 °F 57.2 °F 47% 30.17 in 10.0 mi North 6.9 mph - N/A   Scattered Clouds
4:55 PM 77.0 °F 57.2 °F 50% 30.17 in 10.0 mi NNE 3.5 mph - N/A   Scattered Clouds
5:15 PM 78.8 °F 55.4 °F 44% 30.17 in 10.0 mi NNE 4.6 mph - N/A   Clear
5:35 PM 77.0 °F 55.4 °F 47% 30.17 in 10.0 mi ENE 3.5 mph - N/A   Clear
5:55 PM 77.0 °F 55.4 °F 47% 30.17 in 10.0 mi NE 5.8 mph - N/A   Clear
6:15 PM 77.0 °F 57.2 °F 50% 30.17 in 10.0 mi Calm Calm - N/A   Clear
6:35 PM 73.4 °F 59.0 °F 61% 30.17 in 10.0 mi Calm Calm - N/A   Clear
7:15 PM 68.0 °F 60.8 °F 78% 30.18 in 10.0 mi Calm Calm - N/A   Clear
7:35 PM 66.2 °F 59.0 °F 78% 30.18 in 10.0 mi Calm Calm - N/A   Clear
7:55 PM 64.4 °F 59.0 °F 83% 30.19 in 10.0 mi Calm Calm - N/A   Clear
8:15 PM 68.0 °F 59.0 °F 73% 30.20 in 10.0 mi Calm Calm - N/A   Clear
8:35 PM 68.0 °F 59.0 °F 73% 30.21 in 10.0 mi ESE 5.8 mph - N/A   Clear
8:55 PM 68.0 °F 59.0 °F 73% 30.22 in 10.0 mi SE 3.5 mph - N/A   Clear
9:15 PM 66.2 °F 59.0 °F 78% 30.23 in 10.0 mi ESE 3.5 mph - N/A   Clear
9:55 PM 64.4 °F 59.0 °F 83% 30.24 in 10.0 mi ESE 3.5 mph - N/A   Clear
10:15 PM 64.4 °F 59.0 °F 83% 30.25 in 10.0 mi Calm Calm - N/A   Clear
10:35 PM 64.4 °F 59.0 °F 83% 30.25 in 10.0 mi ESE 3.5 mph - N/A   Scattered Clouds
10:55 PM 62.6 °F 59.0 °F 88% 30.26 in 10.0 mi ESE 3.5 mph - N/A   Scattered Clouds
11:15 PM 62.6 °F 59.0 °F 88% 30.27 in 10.0 mi Calm Calm - N/A   Mostly Cloudy
11:35 PM 62.6 °F 59.0 °F 88% 30.27 in 10.0 mi Calm Calm - N/A   Overcast
11:55 PM 62.6 °F 59.0 °F 88% 30.26 in 10.0 mi East 4.6 mph - N/A   Scattered Clouds